Regional Weather Roundup
Issued by NWS State College, PA

Home | Current Version | Previous Version | Text Only | Print | Product List | Glossary On
Versions: 1 2 3 4 5 6 7 8 9 10 11 12 13 14 15 16 17 18 19 20 21 22 23 24 25 26 27 28 29 30 31 32 33 34 35 36 37 38 39 40 41 42 43 44 45 46 47 48 49 50
000
ASUS41 KCTP 042303
RWRCTP

REGIONAL WEATHER ROUNDUP
NATIONAL WEATHER SERVICE STATE COLLEGE PA
700 PM EDT WED MAY 04 2016

Note: "fair" indicates few or no clouds below 12,000 feet with no
significant weather and/or obstructions to visibility.

* = STATION THAT DOES NOT REPORT PRECIPITATION /E.G. RAIN...SNOW...ETC/
    THUNDER OR FOG.

PAZ002>004-007>009-013>016-020>023-029>032-050000-
WESTERN PENNSYLVANIA

CITY           SKY/WX    TMP DP  RH WIND       PRES   REMARKS
ERIE           SUNNY     60  39  45 NE15      29.63R
MEADVILLE      CLOUDY    58  35  42 SW5       29.62R
FRANKLIN*      CLOUDY    59  36  41 S5        29.64S
NEW CASTLE     FAIR      63  41  44 S8        29.62S
BEAVER COUNTY  PTSUNNY   57  43  58 SE7       29.63R
BUTLER*        MOSUNNY   55  45  67 S5        29.66R
PITTSBURGH INT PTSUNNY   57  44  62 S8        29.63R
PITTSBURGH     LGT RAIN  53  47  79 E3        29.63F
INDIANA*       CLOUDY    59  46  63 SW17      29.67R
LATROBE        PTSUNNY   54  48  82 W7        29.66R
WASHINGTON CO* PTSUNNY   54  48  82 CALM      29.65S
$$

PAZ004>006-010>012-017>019-024>028-033>037-041-042-045-046-049>053-050000-
CENTRAL PENNSYLVANIA

CITY           SKY/WX    TMP DP  RH WIND       PRES   REMARKS
BRADFORD       PTSUNNY   55  43  63 SE10      29.65S
DUBOIS         PTSUNNY   57  40  52 SE7       29.63S
CLEARFIELD     MOSUNNY   55  45  68 E7        29.66R
JOHNSTOWN      CLOUDY    54  42  64 CALM      29.64R
ALTOONA        PTSUNNY   55  47  74 NE5       29.65S
STATE COLLEGE  MOSUNNY   52  50  93 NE3       29.67S
WILLIAMSPORT   CLOUDY    57  48  72 E13       29.67R
SELINSGROVE    CLOUDY    57  49  74 E5        29.69R
FT INDIANTOWN  CLOUDY    53  51  91 E8        29.69R
CAPITAL CITY   CLOUDY    56  49  77 NE8       29.68S
HARRISBURG     CLOUDY    55  48  77 NE9       29.68R
YORK           CLOUDY    53  51  93 E7        29.68R FOG
$$

PAZ038>040-043-044-047-048-054-055-060>062-067>071-050000-
EASTERN PENNSYLVANIA

CITY           SKY/WX    TMP DP  RH WIND       PRES   REMARKS
SCRANTON       CLOUDY    50  46  86 NE5       29.71S
MOUNT POCONO   CLOUDY    42  42 100 E10       29.70S FOG
ALLENTOWN      CLOUDY    52  45  77 E9        29.71S
QUAKERTOWN*    CLOUDY    48  46  93 E6        29.72S
READING        CLOUDY    52  48  86 NE7       29.69S FOG
LANCASTER      CLOUDY    52  48  86 E12       29.69R
COATESVILLE    CLOUDY    50  50 100 MISG      29.70S
POTTSTOWN      LGT RAIN  49  48  97 E6        29.71S FOG
BLUE BELL      CLOUDY    46  46 100 NE7       29.70S
DOYLESTOWN     CLOUDY    48  46  93 VRB3      29.70F
WILLOW GROVE   NOT AVBL
NORTH PHILA    CLOUDY    52  48  86 NE7       29.72F
PHILADELPHIA   CLOUDY    52  45  77 E10       29.70F
$$



USA.gov is the U.S. government's official web portal to all federal, state and local government web resources and services.